| time (UTC) | temp C | wind direction | speed KPH | gust KPH | rain 1hr cm | rain 24hr cm | rain mn cm | humidity % | barometer mb |
| 20260507220528 | 15 | 315 | 17.7 | 17.7 | 0.00 | 0.00 | 0.00 | 34 | 1011.5 |
| 20260507215543 | 14 | 315 | 17.7 | 19.3 | 0.00 | 0.00 | 0.00 | 35 | 1011.4 |
| 20260507214628 | 15 | 292 | 16.1 | 17.7 | 0.00 | 0.00 | 0.00 | 35 | 1011.5 |
| 20260507213644 | -17 | 0 | 0.0 | 0.0 | 0.00 | 0.00 | 0.00 | 100 | |
| 20260507212727 | 15 | 270 | 17.7 | 17.7 | 0.00 | 0.03 | 0.00 | 35 | 1011.3 |
| 20260507211727 | 15 | 315 | 14.5 | 14.5 | 0.00 | 0.03 | 0.00 | 36 | 1011.5 |
| 20260507210726 | -17 | 0 | 0.0 | 0.0 | 0.00 | 0.03 | 0.00 | 100 | |
| 20260507205728 | -17 | 0 | 0.0 | 0.0 | 0.00 | 0.03 | 0.00 | 100 | |
| 20260507204728 | -17 | 0 | 0.0 | 0.0 | 0.00 | 0.03 | 0.00 | 100 | |
| 20260507203729 | 14 | 270 | 14.5 | 14.5 | 0.00 | 0.03 | 0.00 | 37 | 1011.1 |
| 20260507201827 | -17 | 0 | 0.0 | 0.0 | 0.00 | 0.03 | 0.00 | 100 | |
| 20260507194914 | 14 | 292 | 14.5 | 14.5 | 0.00 | 0.03 | 0.00 | 38 | 1011.7 |
| 20260507194816 | 14 | 292 | 14.5 | 14.5 | 0.00 | 0.03 | 0.00 | 38 | 1011.7 |
| 20260507192859 | 15 | 275 | 22.5 | 30.6 | 0.00 | 0.05 | 0.00 | 38 | 1011.7 |
| 20260507191915 | 15 | 243 | 4.8 | 17.7 | 0.00 | 0.05 | 0.00 | 39 | 1011.8 |
| 20260507190013 | 15 | 259 | 12.9 | 20.9 | 0.00 | 0.05 | 0.00 | 41 | 1012.0 |
| 20260507185915 | 15 | 237 | 9.7 | 12.9 | 0.00 | 0.05 | 0.00 | 42 | 1012.0 |
| 20260507184913 | 14 | 297 | 20.9 | 29.0 | 0.00 | 0.05 | 0.00 | 42 | 1011.8 |
| 20260507183914 | 13 | 271 | 14.5 | 20.9 | 0.00 | 0.05 | 0.00 | 42 | 1012.0 |
| 20260507182914 | 13 | 271 | 16.1 | 24.1 | 0.00 | 0.08 | 0.00 | 43 | 1012.2 |
| 20260507181929 | 13 | 271 | 12.9 | 24.1 | 0.00 | 0.08 | 0.00 | 43 | 1012.2 |
| 20260507181815 | 13 | 278 | 17.7 | 25.7 | 0.00 | 0.08 | 0.00 | 43 | 1012.1 |
| 20260507180815 | 13 | 282 | 12.9 | 17.7 | 0.00 | 0.08 | 0.00 | 42 | 1012.2 |
| 20260507175714 | 13 | 267 | 11.3 | 16.1 | 0.00 | 0.08 | 0.00 | 41 | 1012.4 |
| 20260507174813 | 14 | 267 | 11.3 | 19.3 | 0.00 | 0.08 | 0.00 | 41 | 1012.5 |
| 20260507173829 | 13 | 288 | 12.9 | 17.7 | 0.00 | 0.10 | 0.00 | 41 | 1012.6 |
| 20260507172914 | 14 | 310 | 11.3 | 12.9 | 0.00 | 0.10 | 0.00 | 40 | 1012.8 |
| 20260507172832 | 14 | 291 | 16.1 | 19.3 | 0.00 | 0.10 | 0.00 | 39 | 1012.8 |
| 20260507171814 | 13 | 268 | 9.7 | 14.5 | 0.00 | 0.10 | 0.00 | 42 | 1012.8 |
| 20260507170815 | 13 | 258 | 11.3 | 17.7 | 0.00 | 0.10 | 0.00 | 41 | 1013.1 |
| 20260507164814 | 13 | 270 | 1.6 | 3.2 | 0.00 | 0.13 | 0.00 | 42 | 1013.2 |
| 20260507163831 | 13 | 270 | 8.0 | 8.0 | 0.00 | 0.13 | 0.00 | 43 | 1013.2 |
| 20260507162828 | 13 | 225 | 0.0 | 3.2 | 0.00 | 0.13 | 0.00 | 42 | 1013.4 |
| 20260507161815 | 12 | 266 | 11.3 | 19.3 | 0.00 | 0.13 | 0.00 | 42 | 1013.5 |
| 20260507161713 | 12 | 239 | 9.7 | 17.7 | 0.00 | 0.13 | 0.00 | 42 | 1013.5 |
| 20260507155813 | 12 | 272 | 9.7 | 14.5 | 0.00 | 0.15 | 0.00 | 44 | 1013.6 |
| 20260507155714 | 12 | 278 | 16.1 | 22.5 | 0.00 | 0.15 | 0.00 | 45 | 1013.7 |
| 20260507154732 | 12 | 270 | 4.8 | 8.0 | 0.00 | 0.15 | 0.00 | 45 | 1013.6 |
| 20260507154613 | 12 | 270 | 6.4 | 9.7 | 0.00 | 0.15 | 0.00 | 45 | 1013.7 |
| 20260507153614 | 12 | 270 | 8.0 | 11.3 | 0.00 | 0.15 | 0.00 | 47 | 1013.8 |
| 20260507153513 | 12 | 270 | 9.7 | 11.3 | 0.00 | 0.15 | 0.00 | 46 | 1013.8 |
| 20260507153429 | 12 | 270 | 12.9 | 17.7 | 0.00 | 0.15 | 0.00 | 46 | 1013.8 |
| 20260507151513 | 12 | 270 | 9.7 | 17.7 | 0.00 | 0.18 | 0.00 | 47 | 1014.0 |
| 20260507150513 | 12 | 270 | 8.0 | 12.9 | 0.00 | 0.18 | 0.00 | 46 | 1014.2 |
| 20260507145613 | 11 | 292 | 0.0 | 0.0 | 0.00 | 0.20 | 0.00 | 47 | 1014.3 |
| 20260507144613 | 12 | 296 | 14.5 | 19.3 | 0.00 | 0.20 | 0.00 | 48 | 1014.5 |
| 20260507142629 | 12 | 225 | 1.6 | 3.2 | 0.00 | 0.20 | 0.00 | 50 | 1014.6 |
| 20260507141716 | 12 | 292 | 0.0 | 1.6 | 0.00 | 0.23 | 0.00 | 50 | 1014.8 |
| 20260507140714 | 12 | 270 | 3.2 | 8.0 | 0.00 | 0.23 | 0.00 | 51 | 1015.0 |
| 20260507134813 | 13 | 270 | 0.0 | 1.6 | 0.00 | 0.25 | 0.00 | 55 | 1015.2 |
| 20260507132915 | 11 | 270 | 1.6 | 3.2 | 0.00 | 0.28 | 0.00 | 55 | 1015.3 |
| 20260507131913 | 12 | 270 | 1.6 | 1.6 | 0.00 | 0.28 | 0.00 | 58 | 1015.4 |
| 20260507131013 | 12 | 270 | 1.6 | 3.2 | 0.00 | 0.28 | 0.00 | 60 | 1015.2 |
| 20260507130029 | 11 | 315 | 0.0 | 0.0 | 0.00 | 0.30 | 0.00 | 62 | 1015.4 |
| 20260507125113 | 10 | 360 | 0.0 | 0.0 | 0.00 | 0.30 | 0.00 | 64 | 1015.2 |
| 20260507124116 | 9 | 360 | 0.0 | 0.0 | 0.00 | 0.33 | 0.00 | 69 | 1015.3 |
| 20260507123115 | 8 | 360 | 0.0 | 0.0 | 0.00 | 0.33 | 0.00 | 72 | 1015.4 |
| 20260507123014 | 8 | 360 | 0.0 | 0.0 | 0.00 | 0.33 | 0.00 | 72 | 1015.4 |
| 20260507122030 | 8 | 360 | 0.0 | 0.0 | 0.00 | 0.36 | 0.00 | 76 | 1015.2 |
| 20260507121113 | 7 | 360 | 0.0 | 0.0 | 0.00 | 0.38 | 0.00 | 80 | 1015.2 |
| 20260507120113 | 7 | 360 | 0.0 | 0.0 | 0.00 | 0.38 | 0.00 | 82 | 1015.2 |
| 20260507115128 | 7 | 360 | 0.0 | 0.0 | 0.00 | 0.41 | 0.00 | 83 | 1015.1 |
| 20260507114215 | 6 | 360 | 0.0 | 0.0 | 0.00 | 0.41 | 0.00 | 85 | 1015.1 |
| 20260507113313 | 6 | 360 | 0.0 | 0.0 | 0.00 | 0.43 | 0.00 | 84 | 1014.8 |
| 20260507112413 | 6 | 360 | 0.0 | 0.0 | 0.00 | 0.46 | 0.00 | 86 | 1014.8 |
| 20260507111413 | 6 | 360 | 0.0 | 0.0 | 0.00 | 0.48 | 0.00 | 87 | 1014.4 |
| 20260507110413 | 5 | 360 | 0.0 | 0.0 | 0.00 | 0.48 | 0.00 | 88 | 1014.4 |
| 20260507104512 | 4 | 360 | 0.0 | 0.0 | 0.00 | 0.48 | 0.00 | 89 | 1014.1 |
| 20260507104429 | 4 | 360 | 0.0 | 0.0 | 0.00 | 0.48 | 0.00 | 89 | 1014.0 |
| 20260507103515 | 4 | 360 | 0.0 | 0.0 | 0.00 | 0.48 | 0.00 | 87 | 1013.9 |
| 20260507102513 | 4 | 360 | 0.0 | 0.0 | 0.00 | 0.48 | 0.00 | 85 | 1013.9 |
| 20260507102413 | 4 | 360 | 0.0 | 0.0 | 0.00 | 0.48 | 0.00 | 85 | 1013.9 |
| 20260507101414 | 4 | 360 | 0.0 | 0.0 | 0.00 | 0.48 | 0.00 | 83 | 1013.8 |
| 20260507101330 | 4 | 360 | 0.0 | 0.0 | 0.00 | 0.48 | 0.00 | 83 | 1013.8 |
| 20260507100414 | 4 | 360 | 0.0 | 0.0 | 0.00 | 0.48 | 0.00 | 82 | 1013.7 |
| 20260507095513 | 5 | 360 | 0.0 | 0.0 | 0.00 | 0.48 | 0.00 | 79 | 1013.7 |
| 20260507094530 | 5 | 360 | 0.0 | 0.0 | 0.00 | 0.48 | 0.00 | 80 | 1013.7 |
| 20260507093514 | 5 | 360 | 0.0 | 0.0 | 0.00 | 0.48 | 0.00 | 77 | 1013.7 |
| 20260507091629 | 5 | 360 | 0.0 | 0.0 | 0.00 | 0.48 | 0.00 | 76 | 1014.0 |
| 20260507090728 | 5 | 360 | 0.0 | 0.0 | 0.00 | 0.48 | 0.00 | 76 | 1014.0 |
| 20260507090632 | 5 | 360 | 0.0 | 0.0 | 0.00 | 0.48 | 0.00 | 76 | 1014.1 |
| 20260507085630 | 6 | 360 | 0.0 | 0.0 | 0.00 | 0.48 | 0.00 | 73 | 1014.0 |
| 20260507084713 | 6 | 360 | 0.0 | 0.0 | 0.00 | 0.48 | 0.00 | 70 | 1014.0 |
| 20260507083812 | 6 | 360 | 0.0 | 0.0 | 0.00 | 0.51 | 0.00 | 69 | 1014.0 |
| 20260507083731 | 6 | 360 | 0.0 | 0.0 | 0.00 | 0.51 | 0.00 | 69 | 1014.1 |
| 20260507081714 | 6 | 360 | 0.0 | 0.0 | 0.00 | 0.56 | 0.00 | 70 | 1013.9 |
| 20260507080730 | 6 | 360 | 0.0 | 0.0 | 0.00 | 0.58 | 0.00 | 69 | 1014.1 |
| 20260507075815 | 7 | 360 | 0.0 | 0.0 | 0.00 | 0.58 | 0.00 | 67 | 1013.9 |
| 20260507075729 | 7 | 360 | 0.0 | 0.0 | 0.00 | 0.58 | 0.00 | 68 | 1014.0 |
| 20260507074812 | 7 | 360 | 1.6 | 3.2 | 0.00 | 0.58 | 0.00 | 66 | 1014.1 |
| 20260507073813 | 7 | 360 | 3.2 | 4.8 | 0.00 | 0.58 | 0.00 | 66 | 1014.1 |
| 20260507072813 | 7 | 360 | 3.2 | 3.2 | 0.00 | 0.58 | 0.00 | 65 | 1014.2 |
| 20260507071813 | 7 | 360 | 3.2 | 4.8 | 0.00 | 0.61 | 0.00 | 65 | 1014.2 |
| 20260507071714 | 7 | 360 | 3.2 | 4.8 | 0.00 | 0.61 | 0.00 | 65 | 1014.2 |
| 20260507070714 | 7 | 360 | 4.8 | 6.4 | 0.00 | 0.64 | 0.00 | 64 | 1014.0 |
| 20260507065813 | 8 | 360 | 4.8 | 6.4 | 0.00 | 0.64 | 0.00 | 63 | 1014.2 |
| 20260507065712 | 8 | 360 | 4.8 | 6.4 | 0.00 | 0.64 | 0.00 | 63 | 1014.1 |
| 20260507063713 | 8 | 360 | 1.6 | 1.6 | 0.00 | 0.71 | 0.00 | 65 | 1014.2 |
| 20260507062713 | 8 | 360 | 0.0 | 0.0 | 0.00 | 0.71 | 0.00 | 63 | 1014.2 |
| 20260507060812 | 8 | 360 | 1.6 | 3.2 | 0.00 | 0.71 | 0.00 | 64 | 1014.4 |
| 20260507060730 | 8 | 360 | 0.0 | 1.6 | 0.00 | 0.71 | 0.00 | 64 | 1014.5 |
| 20260507055814 | 8 | 360 | 0.0 | 1.6 | 0.00 | 0.71 | 0.00 | 64 | 1014.8 |
| 20260507054830 | 8 | 360 | 3.2 | 6.4 | 0.00 | 0.71 | 0.00 | 63 | 1014.8 |
| 20260507053912 | 8 | 360 | 3.2 | 4.8 | 0.00 | 0.71 | 0.00 | 63 | 1014.9 |
| 20260507053814 | 8 | 360 | 3.2 | 4.8 | 0.00 | 0.71 | 0.00 | 63 | 1014.9 |
| 20260507052830 | 8 | 360 | 4.8 | 6.4 | 0.00 | 0.71 | 0.00 | 62 | 1015.0 |
| 20260507051812 | 8 | 360 | 4.8 | 4.8 | 0.00 | 0.71 | 0.00 | 63 | 1014.9 |
| 20260507050912 | 8 | 360 | 3.2 | 3.2 | 0.00 | 0.71 | 0.00 | 64 | 1014.8 |
| 20260507050813 | 8 | 360 | 4.8 | 6.4 | 0.00 | 0.71 | 0.00 | 64 | 1014.9 |
| 20260507045913 | 9 | 360 | 1.6 | 4.8 | 0.00 | 0.71 | 0.00 | 63 | 1014.9 |
| 20260507043914 | 9 | 360 | 4.8 | 6.4 | 0.00 | 0.76 | 0.00 | 62 | 1014.9 |
| 20260507043013 | 9 | 360 | 6.4 | 6.4 | 0.00 | 0.76 | 0.00 | 63 | 1014.9 |
| 20260507042112 | 9 | 360 | 4.8 | 6.4 | 0.00 | 0.76 | 0.00 | 63 | 1014.9 |
| 20260507041116 | 9 | 360 | 4.8 | 6.4 | 0.00 | 0.76 | 0.00 | 63 | 1015.0 |
| 20260507040112 | 9 | 180 | 6.4 | 8.0 | 0.00 | 0.76 | 0.00 | 63 | 1014.9 |
| 20260507034143 | 9 | 360 | 4.8 | 4.8 | 0.00 | 0.76 | 0.76 | 62 | 1014.8 |
| 20260507032244 | 9 | 360 | 1.6 | 3.2 | 0.00 | 0.76 | 0.76 | 64 | 1014.8 |
| 20260507031229 | 10 | 360 | 3.2 | 4.8 | 0.00 | 0.76 | 0.76 | 62 | 1014.5 |
| 20260507031127 | 10 | 360 | 4.8 | 4.8 | 0.00 | 0.76 | 0.76 | 63 | 1014.4 |
| 20260507030129 | 10 | 360 | 4.8 | 6.4 | 0.00 | 0.76 | 0.76 | 61 | 1014.5 |
| 20260507025128 | 10 | 22 | 6.4 | 8.0 | 0.00 | 0.76 | 0.76 | 61 | 1014.4 |
| 20260507024128 | 10 | 360 | 6.4 | 9.7 | 0.00 | 0.76 | 0.76 | 61 | 1014.4 |
| 20260507023227 | 10 | 360 | 4.8 | 8.0 | 0.00 | 0.76 | 0.76 | 62 | 1014.3 |
| 20260507022326 | 10 | 360 | 4.8 | 4.8 | 0.00 | 0.76 | 0.76 | 61 | 1014.3 |
| 20260507021328 | 10 | 360 | 3.2 | 6.4 | 0.00 | 0.76 | 0.76 | 61 | 1014.2 |
| 20260507020328 | 10 | 360 | 8.0 | 9.7 | 0.00 | 0.76 | 0.76 | 61 | 1014.1 |
| 20260507015428 | 10 | 360 | 6.4 | 8.0 | 0.00 | 0.76 | 0.76 | 60 | 1013.9 |
| 20260507014427 | 10 | 7 | 8.0 | 11.3 | 0.00 | 0.76 | 0.76 | 62 | 1013.8 |
| 20260507013444 | 10 | 17 | 6.4 | 9.7 | 0.00 | 0.76 | 0.76 | 62 | 1013.6 |
| 20260507012445 | 10 | 360 | 8.0 | 9.7 | 0.00 | 0.76 | 0.76 | 64 | 1013.7 |
| 20260507011529 | 10 | 26 | 9.7 | 11.3 | 0.00 | 0.76 | 0.76 | 62 | 1013.4 |
| 20260507010544 | 11 | 10 | 11.3 | 19.3 | 0.00 | 0.76 | 0.76 | 68 | 1013.7 |
| 20260507005628 | 11 | 360 | 8.0 | 11.3 | 0.00 | 0.76 | 0.76 | 67 | 1013.8 |
| 20260507003727 | 11 | 292 | 0.0 | 1.6 | 0.00 | 0.76 | 0.76 | 72 | 1013.7 |
| 20260507002728 | 11 | 292 | 0.0 | 0.0 | 0.00 | 0.76 | 0.76 | 72 | 1013.9 |
| 20260507000743 | 11 | 292 | 1.6 | 4.8 | 0.00 | 0.76 | 0.76 | 72 | 1014.2 |
| 20260506235727 | 11 | 292 | 0.0 | 1.6 | 0.00 | 0.76 | 0.76 | 72 | 1013.7 |
| 20260506235626 | 11 | 292 | 0.0 | 1.6 | 0.00 | 0.76 | 0.76 | 71 | 1013.6 |
| 20260506234643 | 11 | 292 | 0.0 | 0.0 | 0.00 | 0.76 | 0.76 | 71 | 1013.6 |
| 20260506233728 | 11 | 292 | 0.0 | 1.6 | 0.00 | 0.76 | 0.76 | 70 | 1013.6 |
| 20260506232726 | 11 | 292 | 3.2 | 4.8 | 0.00 | 0.76 | 0.76 | 72 | 1013.5 |
| 20260506232627 | 11 | 292 | 1.6 | 3.2 | 0.00 | 0.76 | 0.76 | 72 | 1013.6 |
| 20260506231630 | 11 | 292 | 3.2 | 3.2 | 0.00 | 0.76 | 0.76 | 71 | 1013.4 |
| 20260506230627 | 12 | 292 | 0.0 | 1.6 | 0.00 | 0.76 | 0.76 | 71 | 1013.2 |
| 20260506224645 | 11 | 292 | 1.6 | 4.8 | 0.00 | 0.76 | 0.76 | 71 | 1012.9 |
| 20260506222728 | 11 | 315 | 0.0 | 0.0 | 0.03 | 0.76 | 0.76 | 73 | 1013.0 |
| 20260506221728 | 11 | 315 | 1.6 | 3.2 | 0.03 | 0.76 | 0.76 | 72 | 1013.0 |